Flag for Philippines Weather past 2 weeks in Olongapo, Philippines

Now
81 °F

Broken clouds.


Feels Like: 86 °F
Forecast: 77 / 86 °F
Wind: 2 mph from North

Location: Subic Bay Weather Station

Current Time: Jul 26, 2014 at 10:09:54 AM

Latest Report: Jul 26, 2014 at 9:00 AM


Visibility: N/A

Pressure: 29.83 "Hg

Humidity: 84%

Dew point: 75 °F

Location of OlongapoLocation

Historic Weather in Olongapo — Graph

°F

Olongapo temperature yesterday

Maximum temperature yesterday: 79 °F (at 1:00 AM)
Minimum temperature yesterday: 75 °F (at 4:00 AM)
Average temperature yesterday: 77 °F

Past Weeks' High & Low Weather Summary

 TemperatureHumidityPressure
High93 °F (Jul 12, 3:00 PM)94% (Jul 12, 5:00 AM)29.86 "Hg (Jul 12, 5:00 AM)
Low73 °F (Jul 15, 5:00 PM)56% (Jul 12, 2:00 PM)29.15 "Hg (Jul 16, 10:00 AM)
Average80 °F85%29.72 "Hg
* Reported Jul 11 9:00 AM — Jul 26 9:00 AM, Olongapo, Weather by CustomWeather, © 2014

Note: Actual official high and low records may vary slightly from our data, if they occured in-between our weather recording intervals... More about our weather records

Advertising

Olongapo weather history for previous 24 hours

 ConditionsComfort  
Time TempWeatherWind HumidityBarometerVisibility
9:00 AM
Jul 26
81 °FBroken clouds.2 mph84%29.83 "HgN/A
8:00 AM81 °FBroken clouds.1 mph89%29.83 "HgN/A
7:00 AM75 °FBroken clouds.No wind94%29.80 "HgN/A
6:00 AM75 °FBroken clouds.1 mph89%29.80 "Hg6 mi
5:00 AM75 °FPartly cloudy.No wind89%29.80 "HgN/A
4:00 AM75 °FPartly cloudy.No wind89%29.77 "HgN/A
2:00 AM75 °FPassing clouds.5 mph89%29.80 "HgN/A
1:00 AM75 °FPassing clouds.1 mph89%29.83 "HgN/A
12:00 AM75 °FPassing clouds.1 mph94%29.83 "HgN/A
11:00 PM
Jul 25
75 °FPassing clouds.No wind94%29.86 "HgN/A
10:00 PM75 °FPassing clouds.No wind94%29.83 "HgN/A
9:00 PM75 °FPassing clouds.1 mph94%29.83 "HgN/A
8:00 PM77 °FPassing clouds.1 mph89%29.80 "HgN/A
7:00 PM79 °FMostly cloudy.No wind89%29.77 "HgN/A
6:00 PM79 °FMore clouds than sun.No wind89%29.77 "HgN/A
5:00 PM79 °FLight rain. More clouds than sun.2 mph89%29.77 "Hg6 mi
4:00 PM79 °FLight rain. More clouds than sun.No wind89%29.77 "Hg5 mi
3:00 PM77 °FRain. More clouds than sun.2 mph94%29.77 "Hg4 mi
2:00 PM77 °FRain. More clouds than sun.No wind89%29.80 "Hg4 mi
1:00 PM77 °FRain. More clouds than sun.2 mph89%29.83 "Hg4 mi
12:00 PM75 °FLight rain. More clouds than sun.5 mph94%29.83 "Hg4 mi
11:00 AM79 °FLight rain. More clouds than sun.2 mph89%29.83 "Hg5 mi
10:00 AM77 °FLight rain. More clouds than sun.8 mph89%29.83 "Hg5 mi
Weather by CustomWeather, © 2014

See weather overviewHow to use our weather pages